#timestamp,LO_Frequency,Hit,StdDev 
1605981615.4,286046998.4,N
1605981635.3,286046998.2,N
1605981655.1,286046998.1,N
1605981656.0,286046998.1,N
1605981675.8,286046998.2,N
1605981695.7,286046999.0,N
1605981715.5,286046999.4,N
1605981735.3,286046999.3,N
1605981755.2,286046997.0,Y
1605981775.9,286046998.8,P
1605981795.7,286046998.7,P
1605981815.6,286046998.2,P
1605981835.4,286047000.7,N
1605981855.2,286046998.8,N
1605981875.1,286046999.0,N
1605981876.0,286046999.0,N
1605981895.8,286046998.4,N
1605981915.6,286046998.4,N
1605981935.5,286046999.4,N
1605981955.3,286046996.5,Y
1605981975.1,286046999.0,P
1605981995.9,286046999.3,P
1605982015.7,286046998.8,P
1605982035.5,286046999.2,Y
1605982055.4,286046998.3,P
1605982075.2,286046999.3,N
1605982095.0,286046998.9,N
1605982095.9,286046998.9,Y
1605982115.8,286047000.0,P
1605982135.6,286047000.5,N
1605982155.4,286047000.0,N
1605982175.3,286046999.7,N
1605982195.1,286047000.9,N
1605982215.8,286047000.7,N
1605982235.7,286047001.0,N
1605982255.5,286046998.3,N
1605982275.3,286047001.1,N
1605982295.2,286047001.1,N
1605982315.9,286047000.7,N
1605982335.7,286046998.3,N
1605982355.6,286046998.9,N
1605982375.4,286046998.9,N
1605982395.2,286046998.8,N
1605982415.1,286047000.6,N
1605982416.0,286047000.6,N
1605982435.8,286047000.7,N
1605982455.6,286047000.3,N
1605982475.5,286047000.9,N
1605982495.3,286047000.3,N
1605982515.1,286047000.5,N
1605982535.9,286047000.4,N
1605982555.7,286047001.0,N
1605982575.5,286046998.6,N
1605982595.4,286046998.8,N
1605982615.2,286046999.2,N
1605982635.0,286046998.9,N
1605982635.9,286046998.9,N
1605982655.8,286046999.5,N
1605982675.6,286046998.5,N
1605982695.4,286046998.7,N
1605982715.3,286046999.4,N
1605982735.1,286046998.9,N
1605982755.8,286046998.5,N
1605982775.7,286046998.4,N
1605982795.5,286046998.4,N
1605982815.3,286046998.8,N
1605982835.2,286046998.4,N
1605982855.0,286046998.5,N
1605982855.9,286046998.5,N
1605982875.7,286046998.8,N
1605982895.6,286046998.1,N
1605982915.4,286046999.3,N
1605982935.2,286046998.9,N
1605982955.1,286046998.1,N
1605982956.0,286046998.1,N
1605982975.8,286046998.5,N
1605982995.6,286046998.6,N
1605983015.5,286047001.1,N
1605983035.3,286046998.2,N
1605983055.1,286046998.1,N
1605983075.9,286046999.3,N
1605983095.7,286046999.4,N
1605983115.5,286046998.4,N
1605983135.4,286046996.9,Y
1605983155.2,286047001.0,P
1605983175.0,286047001.1,N
1605983176.0,286047001.1,N
1605983195.8,286046998.4,N
1605983215.6,286046998.6,N
1605983235.5,286047000.9,N
1605983255.3,286047000.8,N
1605983275.1,286047000.8,N
1605983295.9,286046999.9,N
1605983315.7,286047000.1,N
1605983335.5,286047000.3,N
1605983355.4,286046998.2,N
1605983375.2,286046998.5,N
1605983395.0,286047000.5,N
1605983395.9,286047000.5,N
1605983415.8,286047002.4,N
1605983435.6,286047002.7,N
1605983455.4,286046999.7,N
1605983475.3,286047000.1,N
1605983495.1,286047002.7,N
1605983496.0,286047002.7,N
1605983515.8,286047000.1,N
1605983535.7,286047000.6,N
1605983555.5,286047000.5,N
1605983575.3,286047000.1,N
1605983595.2,286047002.0,N
1605983615.9,286047001.8,N
1605983635.7,286047001.7,N
1605983655.6,286047003.9,Y
1605983675.4,286047002.3,P
1605983695.2,286047002.1,N
1605983715.1,286047002.6,P
1605983716.0,286047002.6,Y
1605983735.8,286047011.9,P
1605983755.6,286047001.1,N
1605983775.5,286047000.8,N
1605983795.3,286047000.1,N
1605983815.1,286046999.7,N
1605983835.9,286047002.4,N
1605983855.7,286047002.8,N
1605983875.5,286047002.0,N
1605983895.4,286047001.8,N
1605983915.2,286047003.9,N
1605983935.0,286047002.3,N
1605983935.9,286047002.3,N
1605983955.8,286047002.1,N
1605983975.6,286047001.3,N
1605983995.4,286047001.7,N
1605984015.3,286047001.3,N
1605984035.1,286047003.5,N
1605984036.0,286047003.5,N
1605984055.8,286047003.4,N
1605984075.7,286047003.5,N
1605984095.5,286047004.3,N
1605984115.3,286047003.0,N
1605984135.2,286047005.3,N
1605984155.9,286047005.7,N
1605984175.7,286047003.0,N
1605984195.6,286047003.3,N
1605984215.4,286047005.2,N
1605984235.2,286047005.2,N
1605984255.1,286047005.7,N
1605984256.0,286047005.7,N
1605984275.8,286047004.6,N
1605984295.6,286047004.6,N
1605984315.5,286047004.9,N
1605984335.3,286047007.6,Y
1605984355.1,286047004.2,P
1605984375.9,286047004.2,P
1605984395.7,286047003.1,P
1605984415.5,286047003.3,Y
1605984435.4,286047000.6,P
1605984455.2,286047000.5,N
1605984475.0,286047000.0,N
1605984475.9,286047000.0,N
1605984495.8,286047002.6,N
1605984515.6,286047002.8,N
1605984535.4,286047002.8,N
1605984555.3,286047002.1,N
1605984575.1,286047001.9,N
1605984576.0,286047001.9,N
1605984595.8,286047001.6,N
1605984615.7,286047001.6,N
1605984635.5,286047002.0,N
1605984655.3,286047001.6,N
1605984675.2,286047002.6,N
1605984695.9,286047004.1,Y
1605984715.7,286046999.7,P
1605984735.6,286047000.2,N
1605984755.4,286047002.8,P
1605984775.2,286047001.9,N
1605984795.1,286047004.4,Y
1605984796.0,286047004.4,P
1605984815.8,286047002.0,N
1605984835.6,286047001.8,N
1605984855.5,286047001.7,N
1605984875.3,286047003.7,Y
1605984895.1,286047001.4,P
1605984915.9,286047001.7,P
1605984935.7,286047001.7,P
1605984955.5,286047005.6,Y
1605984975.4,286047004.4,P
1605984995.2,286047004.3,P
1605985015.0,286047001.9,N
1605985015.9,286047001.9,N
1605985035.8,286047003.9,Y
1605985055.6,286047000.8,P
1605985075.4,286047001.2,N
1605985095.3,286047000.1,N
1605985115.1,286046999.9,N
1605985135.8,286047002.4,N
1605985155.7,286047002.3,N
1605985175.5,286047002.0,N
1605985195.3,286046999.9,N
